Regional Weather Roundup
Issued by NWS Wakefield, VA

Home | Current Version | Previous Version | Graphics & Text | Print | Product List | Glossary On
Versions: 1 2 3 4 5 6 7 8 9 10 11 12 13 14 15 16 17 18 19 20 21 22 23 24 25 26 27 28 29 30 31 32 33 34 35 36 37 38 39 40 41 42 43 44 45 46 47 48 49 50
000
ASUS41 KAKQ 011614
RWRAKQ

REGIONAL WEATHER ROUNDUP
NATIONAL WEATHER SERVICE WAKEFIELD VA
1200 PM EDT TUE SEP 01 2015

Note: "fair" indicates few or no clouds below 12,000 feet with no
significant weather and/or obstructions to visibility. * = Denotes
station may not report precipitation (e.g., rain,snow,etc.),
thunder or fog.

VAZ042-051-052>054-056-011700-
NORTHERN VIRGINIA

CITY           SKY/WX    TMP DP  RH WIND       PRES   REMARKS
WASH NATIONAL  MOSUNNY   91  66  43 N8        30.07F
DULLES         MOSUNNY   88  67  49 N9        30.09F
FORT BELVOIR   MOSUNNY   90  68  48 NE6       30.07F
QUANTICO       MOSUNNY   82  71  69 S5        30.09F
FREDERICKSBRG* SUNNY     88  70  54 CALM      30.08F
STAFFORD*      SUNNY     87  67  51 NE3       30.13F
WARRENTON      SUNNY     90  71  53 N7        30.09F HX  96
CULPEPER*      SUNNY     86  69  58 CALM      30.10F
MANASSAS*      SUNNY     88  70  55 N6        30.09S
LEESBURG*      SUNNY     88  72  58 NE6       30.10F
WINCHESTER     SUNNY     88  64  45 NE7       30.12F
FRONT ROYAL*   FAIR      86  66  51 CALM      30.11F
LURAY*         FAIR      88  64  45 S3        30.13F
$$

VAZ048-049-060>072-079>083-011700-
CENTRAL AND SOUTH CENTRAL VIRGINIA

CITY           SKY/WX    TMP DP  RH WIND       PRES   REMARKS
RICHMOND       PTSUNNY   87  69  54 N3        30.09F
CHESTERFIELD*  FAIR      84  63  48 CALM      30.10F
PETERSBURG*    MOSUNNY   84  74  70 NE3       30.10F
HANOVER        SUNNY     84  69  60 CALM      30.11F
TAPPAHANNOCK*  SUNNY     84  65  52 CALM      30.10S
QUINTON*       FAIR      83  71  66 CALM      30.09F
CHARLOTTSVILLE SUNNY     88  68  51 E5        30.11F
GORDONSVILLE*  FAIR      88  68  51 NE8       30.10S
ORANGE*        SUNNY     90  68  48 N5        30.11F
LOUISA*        MOSUNNY   88  68  51 NE7       30.10S
BUMPASS*       FAIR      85  70  61 NE3       30.10F
FARMVILLE*     MOSUNNY   89  64  43 E6        30.09F
CREWE*         FAIR     N/A N/A N/A E3        30.10F
FORT PICKETT*  FAIR      84  69  60 CALM      30.10F
CHASE CITY*    FAIR      87  70  56 CALM      30.11F
CLARKSVILLE*   FAIR      82  70  65 NW5       30.11S
SOUTH HILL*    SUNNY     82  72  71 CALM      30.17S
LAWRENCEVILLE* FAIR      81  73  78 CALM      30.10F
EMPORIA*       MOSUNNY   79  70  73 CALM      30.12S
$$

VAZ088>098-011700-
SOUTHEAST VIRGINIA

CITY           SKY/WX    TMP DP  RH WIND       PRES   REMARKS
NORFOLK        MOSUNNY   82  69  64 NE3       30.09F
VIRGINIA BEACH PTSUNNY   87  70  56 NE6       30.08F
NORFOLK NAVAL  PTSUNNY   82  70  66 CALM      30.10F
WEST POINT*    MOSUNNY   86  68  55 CALM      30.11S
SALUDA*        FAIR      80  72  76 N5        30.08F
NEWPORT NEWS   MOSUNNY   84  70  62 E5        30.08F
LANGLEY AFB    MOSUNNY   82  70  67 VRB2      30.08F
FORT EUSTIS    MOSUNNY   81  70  69 NW7       30.07F
WILLIAMSBURG*  MOSUNNY   88  73  62 CALM      30.10F HX  96
HR EXEC AP*      N/A     81  72  74 CALM      30.11F
FRANKLIN*      CLOUDY    77  69  77 CALM      30.11F
WAKEFIELD      MOSUNNY   83  70  64 CALM      30.10S
$$

VAZ020-022-025-037-045-011700-
WEST CENTRAL AND SOUTHWEST VIRGINIA

CITY           SKY/WX    TMP DP  RH WIND       PRES   REMARKS
STAUNTON*      SUNNY     87  65  47 CALM      30.17F
WAYNESBORO*    FAIR      86  65  50 NE7       30.16F
HOT SPRINGS VA PTSUNNY   71  64  77 N5        30.28F
LYNCHBURG      SUNNY     87  65  47 MISG      30.14F
DANVILLE       SUNNY     87  67  51 N3        30.12F
SOUTH BOSTON*  FAIR      87  66  50 CALM      30.11F
MARTINSVILLE   SUNNY     87  65  48 NE3       30.17S
ROANOKE        SUNNY     86  65  49 N7        30.17F
BLACKSBURG     PTSUNNY   82  69  64 CALM      30.24F
DUBLIN*        CLOUDY    81  66  60 N3        30.23F
MARION*        PTSUNNY   81  63  53 CALM      30.26S
HILLSVILLE*    SUNNY     77  64  64 N5        30.24S
RICHLANDS*     FAIR      78  26  14 N5        30.25F
WISE*          PTSUNNY   79  63  57 N6        30.26F
ABINGDON*      SUNNY     82  61  49 CALM      30.23S
$$

MDZ021>025-VAZ099-100-011700-
SOUTHERN MARYLAND AND THE DELMARVA PENINSULA

CITY           SKY/WX    TMP DP  RH WIND       PRES   REMARKS
PATUXENT RIVER MOSUNNY   85  72  65 SE5       30.07F
BAY BRIDGE APT   N/A     81  68  65 NW7       30.07F
LEONARDTOWN    NOT AVBL
DOVER          SUNNY     86  73  65 VRB1      30.05F
GEORGETOWN     SUNNY     88  69  53 E5        30.06F
EASTON         MOSUNNY   86  73  66 N5        30.10F
CAMBRIDGE      SUNNY     86  72  62 SW5       30.06F
SALISBURY      SUNNY     86  70  58 N5        30.06F
OCEAN CITY     SUNNY     82  72  71 S8        30.07S
WALLOPS ISLAND MOSUNNY   86  72  62 SE9       30.08F
ACCOMACK*      SUNNY     82  64  54 NE3       30.08F
$$

NCZ012>017-030>032-011700-
NORTH CENTRAL AND EASTERN NORTH CAROLINA

CITY           SKY/WX    TMP DP  RH WIND       PRES   REMARKS
ROANOKE RAPIDS PTSUNNY   79  70  73 CALM      30.11S
RALEIGH        MOSUNNY   85  70  60 W6        30.12S
ELIZABETH CITY CLOUDY    82  72  71 N5        30.09F
AHOSKIE*       MOSUNNY   77  71  81 CALM      30.11F
EDENTON*       CLOUDY    75  70  84 NW5       30.10F
CURRITUCK*     CLOUDY    80  71  73 NW3       30.10F
KILL DEVIL HLS SUNNY     84  73  69 E5        30.08F
MANTEO         CLOUDY    80  72  77 NE8       30.09F
CAPE HATTERAS  PTSUNNY   82  75  79 N7        30.08F
TARBORO*       CLOUDY    80  71  74 W5        30.12S
GOLDSBORO      MOSUNNY   82  72  71 VRB1      30.10F
WASHINGTON     CLOUDY    76  70  84 N3        30.11F
GREENVILLE     CLOUDY    77  72  83 CALM      30.12F
NEW BERN       CLOUDY    80  70  71 W3        30.12F
WILMINGTON     MOSUNNY   80  71  74 NW7       30.10F
$$

VAZ048-011700-
ELSEWHERE

CITY           SKY/WX    TMP DP  RH WIND       PRES   REMARKS
HARRISBURG PA  SUNNY     87  60  40 NW10      30.07F
BALTIMORE      MOSUNNY   90  67  46 VRB7      30.07S
ANNAPOLIS      SUNNY     84  70  62 N7        30.07S
ANDREWS AFB    SUNNY     89  68  50 E8        30.07F
PHILADELPHIA   SUNNY     89  65  44 E6        30.05F
HENDERSON NC   SUNNY     84  66  54 CALM      30.12S
GREENSBORO     MOSUNNY   85  65  51 E5        30.13F
ROCKY MOUNT    MOSUNNY   82  71  69 VRB5      30.11F
$$

VAZ100-011700-
MARINE

STATION/POSITION TIME  TEMP    WIND        PRES    WAVE   SWELL
                       AIR SEA DIR/SP/G            HT/PER HT/PER
                 (UTC) (F)     (DEG/KT/KT) (MB)    (FT/S) (FT/S)
BRANDYWINE LGT   1500   75 76  330/  3/  4 1018.4R
CAPE MAY NJ      1500   76 79  290/  6/  7 1017.9R
LEWES DE         1500   78 75  350/  2/  3 1018.0R
15NM E FENWICK I 1550   76 79  240/  6/  6 1018.4R   2/ 8   2/ 8
OCEAN-CITY-INLET 1500   79 76  190/  5/  7 1017.6R
GOOSES REEF MD   1600   79 80  360/  6/  6 1019.5F
COVE POINT MD    1500   78     110/  1/  3 1019.3R
SOLOMONS ISLAND  1500      80                N/A
BISHOPS HEAD MD  1500   75 77  260/  6/  7 1018.0R
PINEY POINT MD   1505          310/  2/  3   N/A
POTOMAC MD       1600   75 80  310/  4/  4 1017.7F   0
CAMBRIDGE MD     1500   80 80   10/  2/  2 1017.5R
LEWISETTA VA     1500   75 79   60/  5/  7 1018.5R
RAPPAHANNOCK LGT 1500          320/  2/  2 1019.7R
STINGRAY PT      1600   78 81   CALM  /  2 1019.4F   0
YORK RVR RNG VA  1500   77     130/  1/  2 1018.6R
YORKTOWN VA      1500   78 80   CALM  /  1 1018.7R
JAMESTOWN VA     1600   77 81  200/  2/  4   N/A
DOMINION TERM VA 1500   76     300/  5/  5 1019.1R
KIPTOPEKE VA     1500      79  300/  4/  6   N/A
CHES BAY BRIDGE  1500   76 79  330/  5/  7 1018.8R
CAPE HENRY VA    1500   76     340/  8/ 10   N/A
CHESAPEAKE LGHT  1500   76      20/  7/  8 1019.8R
WILLOUBY STN VA  1500   76      50/  4/  5 1020.2R
CAPE HENRY BUOY  1528      79                N/A     2/10
1ST LANDING BUOY 1600      79              1018.6F   1
CAPE CHARLES BUO 1526      79                N/A     2/ 8   2/ 8
OFFSHORE WE BUOY 1511      79                N/A     2/ 8   2/ 8
64NM E OF VA BCH 1550   78 78   30/  6/  8 1018.4S   3/ 8   2/ 8
DUCK PIER NC     1500   77 78  350/  7/  7 1018.4R
44100 DUCK FRF   1524      78                N/A     2/10
44056 DUCK FRF   1511      79                N/A     2/10
OREGON INLET NC  1500   79 79   40/  6/  8 1018.9R
HATTERAS NC      1500   79 79  330/  7/  8 1018.9R
DIAMOND SHLS NC  1550   79 84  350/  8/ 10 1018.5F   3/ 6   3/ 6
CAPE LOOKOUT NC  1600   80     290/  6/  7 1018.8F
$$



USA.gov is the U.S. government's official web portal to all federal, state and local government web resources and services.